EWG442 EDDH-LSZH

Flight info

Callsign EWG442
Flight time 1h 2m
Altitude 35000
Route IDEKO7G IDEKO N850 ROBEG DCT SWALM/N0435F340 DCT OMOGI/N0438F350 T721 LAMGO/N0386F230 T721 RILAX RILAX2A
Aircraft A320/M-SDE3FGHIRWY/LB1

Departure

Time 2026-04-26 18:24
Airport Hamburg Helmut Schmidt Airport (EDDH)

Arrival

Time 2026-04-26 19:26
Airport Zürich Airport (LSZH)
Time Latitude Longitude Altitude Speed Heading
2026-04-26 17:48 53.63243 10.00016 51 ft 0 kts 322°
2026-04-26 18:13 53.63242 10.00017 50 ft 2 kts 322°
2026-04-26 18:13 53.63222 10.00045 49 ft 4 kts 310°
2026-04-26 18:13 53.63210 10.00082 50 ft 4 kts 267°
2026-04-26 18:13 53.63212 10.00103 45 ft 1 kts 231°
2026-04-26 18:14 53.63213 10.00104 45 ft 0 kts 231°
2026-04-26 18:18 53.63204 10.00085 50 ft 7 kts 231°
2026-04-26 18:19 53.63173 10.00019 50 ft 6 kts 232°
2026-04-26 18:19 53.63148 9.99965 50 ft 6 kts 231°
2026-04-26 18:19 53.63084 9.99892 49 ft 13 kts 178°
2026-04-26 18:19 53.63013 9.99943 50 ft 10 kts 154°
2026-04-26 18:20 53.62961 9.99985 50 ft 7 kts 161°
2026-04-26 18:20 53.62929 9.99986 50 ft 3 kts 194°
2026-04-26 18:20 53.62915 9.99966 49 ft 2 kts 228°
2026-04-26 18:20 53.62907 9.99945 50 ft 3 kts 239°
2026-04-26 18:21 53.62898 9.99919 50 ft 1 kts 242°
2026-04-26 18:21 53.62888 9.99887 48 ft 9 kts 242°
2026-04-26 18:21 53.62866 9.99775 48 ft 10 kts 276°
2026-04-26 18:21 53.62907 9.99709 49 ft 0 kts 332°
2026-04-26 18:23 53.62908 9.99709 49 ft 1 kts 332°
2026-04-26 18:23 53.63073 9.99566 47 ft 63 kts 333°
2026-04-26 18:23 53.63656 9.99063 49 ft 123 kts 333°
2026-04-26 18:23 53.64547 9.98279 223 ft 152 kts 332°
2026-04-26 18:24 53.65481 9.97494 920 ft 151 kts 332°
2026-04-26 18:24 53.66424 9.96696 1548 ft 152 kts 332°
2026-04-26 18:24 53.67392 9.95871 2006 ft 164 kts 331°
2026-04-26 18:24 53.68480 9.94936 2299 ft 187 kts 331°
2026-04-26 18:25 53.69703 9.93880 2649 ft 206 kts 330°
2026-04-26 18:25 53.70968 9.92621 3266 ft 212 kts 313°
2026-04-26 18:25 53.71669 9.90449 3809 ft 221 kts 280°
2026-04-26 18:25 53.71631 9.87791 4214 ft 242 kts 251°
2026-04-26 18:26 53.70626 9.85428 4900 ft 255 kts 216°
2026-04-26 18:26 53.69005 9.84183 5696 ft 263 kts 202°
2026-04-26 18:26 53.67247 9.83152 6511 ft 270 kts 201°
2026-04-26 18:26 53.65435 9.82144 7265 ft 277 kts 201°
2026-04-26 18:27 53.63584 9.81121 8036 ft 283 kts 201°
2026-04-26 18:27 53.61692 9.80068 8803 ft 289 kts 201°
2026-04-26 18:27 53.59770 9.78989 9580 ft 294 kts 201°
2026-04-26 18:27 53.57802 9.77878 10142 ft 302 kts 201°
2026-04-26 18:28 53.55804 9.76744 10271 ft 304 kts 201°
2026-04-26 18:28 53.53701 9.75538 10301 ft 331 kts 201°
2026-04-26 18:28 53.51538 9.74305 10299 ft 337 kts 201°
2026-04-26 18:28 53.49315 9.73043 10302 ft 340 kts 201°
2026-04-26 18:29 53.47104 9.71793 10303 ft 339 kts 201°
2026-04-26 18:29 53.44888 9.70545 10298 ft 333 kts 201°
2026-04-26 18:29 53.42638 9.69278 10777 ft 345 kts 201°
2026-04-26 18:29 53.40330 9.67975 11424 ft 352 kts 201°
2026-04-26 18:30 53.37996 9.66652 12146 ft 356 kts 201°
2026-04-26 18:30 53.35658 9.65324 12876 ft 360 kts 201°
2026-04-26 18:30 53.33271 9.63972 13604 ft 363 kts 201°
2026-04-26 18:30 53.30868 9.62615 14297 ft 367 kts 201°
2026-04-26 18:31 53.28433 9.61245 14947 ft 370 kts 201°
2026-04-26 18:31 53.25982 9.59872 15596 ft 372 kts 201°
2026-04-26 18:31 53.23514 9.58492 16242 ft 375 kts 202°
2026-04-26 18:31 53.21034 9.57104 16881 ft 377 kts 202°
2026-04-26 18:32 53.18530 9.55702 17528 ft 380 kts 202°
2026-04-26 18:32 53.16044 9.54310 18147 ft 382 kts 202°
2026-04-26 18:32 53.13510 9.52894 18751 ft 385 kts 202°
2026-04-26 18:32 53.10958 9.51474 19293 ft 388 kts 202°
2026-04-26 18:33 53.08389 9.50045 19837 ft 391 kts 202°
2026-04-26 18:33 53.05798 9.48604 20384 ft 393 kts 202°
2026-04-26 18:33 53.03193 9.47159 20934 ft 396 kts 202°
2026-04-26 18:33 53.00567 9.45711 21472 ft 399 kts 201°
2026-04-26 18:34 52.97831 9.44699 22000 ft 406 kts 191°
2026-04-26 18:34 52.95012 9.44093 22529 ft 409 kts 191°
2026-04-26 18:34 52.92174 9.43486 23039 ft 412 kts 191°
2026-04-26 18:34 52.89320 9.42877 23534 ft 415 kts 191°
2026-04-26 18:35 52.86436 9.42264 24000 ft 418 kts 191°
2026-04-26 18:35 52.83583 9.41662 24397 ft 420 kts 191°
2026-04-26 18:35 52.80672 9.41048 24792 ft 423 kts 191°
2026-04-26 18:35 52.77744 9.40426 25187 ft 425 kts 191°
2026-04-26 18:36 52.74805 9.39802 25572 ft 427 kts 191°
2026-04-26 18:36 52.71850 9.39173 25940 ft 429 kts 191°
2026-04-26 18:36 52.68873 9.38542 26307 ft 431 kts 191°
2026-04-26 18:36 52.65891 9.37911 26673 ft 433 kts 191°
2026-04-26 18:37 52.62892 9.37276 27028 ft 435 kts 191°
2026-04-26 18:37 52.59891 9.36602 27374 ft 437 kts 192°
2026-04-26 18:37 52.56911 9.35856 27715 ft 439 kts 193°
2026-04-26 18:37 52.53891 9.35039 28051 ft 440 kts 193°
2026-04-26 18:38 52.50852 9.34195 28385 ft 442 kts 193°
2026-04-26 18:38 52.47803 9.33355 28708 ft 445 kts 193°
2026-04-26 18:38 52.44745 9.32528 29014 ft 447 kts 193°
2026-04-26 18:38 52.41663 9.31711 29326 ft 449 kts 193°
2026-04-26 18:39 52.38569 9.30904 29623 ft 451 kts 193°
2026-04-26 18:39 52.35485 9.30107 29901 ft 453 kts 193°
2026-04-26 18:39 52.32366 9.29301 30183 ft 455 kts 193°
2026-04-26 18:39 52.29219 9.28482 30431 ft 457 kts 193°
2026-04-26 18:40 52.26074 9.27660 30643 ft 459 kts 193°
2026-04-26 18:40 52.22895 9.26963 30851 ft 464 kts 188°
2026-04-26 18:40 52.20752 9.26826 30984 ft 467 kts 185°
2026-04-26 18:40 52.16385 9.26645 31238 ft 469 kts 185°
2026-04-26 18:41 52.13118 9.26512 31459 ft 470 kts 185°
2026-04-26 18:41 52.10947 9.26422 31646 ft 470 kts 185°
2026-04-26 18:41 52.06612 9.26238 32007 ft 470 kts 185°
2026-04-26 18:41 52.03335 9.26097 32273 ft 470 kts 185°
2026-04-26 18:42 52.00061 9.25954 32546 ft 470 kts 186°
2026-04-26 18:42 51.97894 9.25859 32720 ft 470 kts 185°
2026-04-26 18:42 51.94629 9.25716 32992 ft 470 kts 185°
2026-04-26 18:42 51.91343 9.25574 33268 ft 470 kts 185°
2026-04-26 18:43 51.88063 9.25434 33543 ft 470 kts 185°
2026-04-26 18:43 51.84788 9.25295 33812 ft 470 kts 185°
2026-04-26 18:43 51.81514 9.25156 34093 ft 470 kts 185°
2026-04-26 18:43 51.78286 9.25016 34355 ft 469 kts 185°
2026-04-26 18:44 51.75020 9.24876 34590 ft 469 kts 185°
2026-04-26 18:44 51.71750 9.24738 34826 ft 469 kts 185°
2026-04-26 18:44 51.68482 9.24598 35062 ft 468 kts 185°
2026-04-26 18:44 51.65217 9.24456 35242 ft 469 kts 185°
2026-04-26 18:45 51.58732 9.24174 35279 ft 465 kts 185°
2026-04-26 18:45 51.52265 9.23897 35273 ft 464 kts 185°
2026-04-26 18:46 51.45847 9.23632 35270 ft 464 kts 185°
2026-04-26 18:46 51.39395 9.23359 35274 ft 463 kts 185°
2026-04-26 18:47 51.32929 9.23091 35274 ft 463 kts 185°
2026-04-26 18:47 51.26480 9.22820 35273 ft 463 kts 185°
2026-04-26 18:48 51.20021 9.22544 35277 ft 463 kts 185°
2026-04-26 18:48 51.13611 9.22278 35267 ft 463 kts 185°
2026-04-26 18:49 51.07161 9.22020 35269 ft 463 kts 185°
2026-04-26 18:49 51.00705 9.21750 35267 ft 463 kts 185°
2026-04-26 18:50 50.94255 9.21481 35270 ft 463 kts 185°
2026-04-26 18:50 50.87842 9.21213 35274 ft 463 kts 185°
2026-04-26 18:51 50.81385 9.20942 35271 ft 463 kts 184°
2026-04-26 18:51 50.74939 9.20689 35269 ft 463 kts 184°
2026-04-26 18:52 50.68535 9.19903 35268 ft 460 kts 191°
2026-04-26 18:52 50.62219 9.18572 35265 ft 460 kts 191°
2026-04-26 18:53 50.55855 9.17253 35263 ft 460 kts 191°
2026-04-26 18:53 50.49491 9.15942 35262 ft 460 kts 191°
2026-04-26 18:54 50.43130 9.14640 35256 ft 460 kts 191°
2026-04-26 18:54 50.36807 9.13339 35257 ft 460 kts 191°
2026-04-26 18:55 50.30439 9.12024 35256 ft 460 kts 190°
2026-04-26 18:55 50.24108 9.10727 35253 ft 461 kts 190°
2026-04-26 18:56 50.17744 9.09438 35249 ft 461 kts 190°
2026-04-26 18:56 50.11374 9.08136 35249 ft 460 kts 190°
2026-04-26 18:57 50.06102 9.07066 35250 ft 461 kts 190°
2026-04-26 18:57 49.99835 9.05793 35251 ft 460 kts 190°
2026-04-26 18:58 49.93476 9.04504 35247 ft 460 kts 190°
2026-04-26 18:58 49.87123 9.03233 35248 ft 460 kts 190°
2026-04-26 18:59 49.80769 9.01956 35246 ft 460 kts 190°
2026-04-26 18:59 49.74437 9.00687 35242 ft 460 kts 190°
2026-04-26 19:00 49.68096 8.99415 35243 ft 459 kts 190°
2026-04-26 19:00 49.61754 8.98028 35242 ft 458 kts 192°
2026-04-26 19:01 49.55479 8.96265 35242 ft 458 kts 194°
2026-04-26 19:01 49.49210 8.94431 34931 ft 458 kts 193°
2026-04-26 19:02 49.46075 8.93540 34690 ft 458 kts 193°
2026-04-26 19:02 49.42933 8.92665 34439 ft 459 kts 193°
2026-04-26 19:02 49.39783 8.91798 34191 ft 459 kts 193°
2026-04-26 19:02 49.37697 8.91232 34007 ft 459 kts 193°
2026-04-26 19:03 49.33520 8.90110 33639 ft 460 kts 192°
2026-04-26 19:03 49.30364 8.89264 33364 ft 460 kts 192°
2026-04-26 19:03 49.27212 8.88417 33092 ft 459 kts 192°
2026-04-26 19:03 49.24066 8.87568 32819 ft 457 kts 192°
2026-04-26 19:04 49.20931 8.86718 32555 ft 456 kts 193°
2026-04-26 19:04 49.17814 8.85869 32291 ft 454 kts 193°
2026-04-26 19:04 49.14697 8.85018 32030 ft 453 kts 193°
2026-04-26 19:04 49.11596 8.84167 31766 ft 452 kts 193°
2026-04-26 19:05 49.05458 8.82490 31256 ft 449 kts 192°
2026-04-26 19:05 49.02379 8.81654 31005 ft 448 kts 192°
2026-04-26 19:05 48.99309 8.80822 30755 ft 446 kts 192°
2026-04-26 19:06 48.96254 8.79993 30504 ft 445 kts 192°
2026-04-26 19:06 48.93209 8.79164 30260 ft 444 kts 192°
2026-04-26 19:06 48.90166 8.78336 29942 ft 442 kts 192°
2026-04-26 19:06 48.87142 8.77517 29499 ft 439 kts 192°
2026-04-26 19:07 48.84174 8.76720 29087 ft 436 kts 192°
2026-04-26 19:07 48.81190 8.75920 28669 ft 433 kts 192°
2026-04-26 19:07 48.78225 8.75127 28262 ft 430 kts 192°
2026-04-26 19:07 48.75283 8.74344 27859 ft 428 kts 192°
2026-04-26 19:08 48.72352 8.73563 27466 ft 425 kts 192°
2026-04-26 19:08 48.69447 8.72787 27074 ft 423 kts 192°
2026-04-26 19:08 48.66553 8.72016 26687 ft 420 kts 192°
2026-04-26 19:08 48.63676 8.71252 26284 ft 419 kts 192°
2026-04-26 19:09 48.60857 8.70507 25848 ft 414 kts 192°
2026-04-26 19:09 48.57988 8.69745 25383 ft 411 kts 192°
2026-04-26 19:09 48.55220 8.69007 24942 ft 408 kts 192°
2026-04-26 19:09 48.52416 8.68259 24429 ft 407 kts 192°
2026-04-26 19:10 48.49636 8.67518 23967 ft 405 kts 192°
2026-04-26 19:10 48.46860 8.66780 23444 ft 403 kts 192°
2026-04-26 19:10 48.44098 8.66051 22902 ft 401 kts 192°
2026-04-26 19:10 48.41356 8.65331 22369 ft 400 kts 192°
2026-04-26 19:11 48.38617 8.64613 21844 ft 398 kts 192°
2026-04-26 19:11 48.35892 8.63873 21328 ft 396 kts 193°
2026-04-26 19:11 48.33185 8.63073 20819 ft 394 kts 194°
2026-04-26 19:11 48.30507 8.62247 20323 ft 392 kts 194°
2026-04-26 19:12 48.27836 8.61409 19830 ft 390 kts 194°
2026-04-26 19:12 48.25169 8.60577 19345 ft 389 kts 194°
2026-04-26 19:12 48.22525 8.59766 18869 ft 387 kts 193°
2026-04-26 19:12 48.19922 8.58980 18401 ft 385 kts 193°
2026-04-26 19:13 48.17328 8.58205 18192 ft 374 kts 193°
2026-04-26 19:13 48.14813 8.57457 18222 ft 366 kts 193°
2026-04-26 19:13 48.12316 8.56713 18222 ft 365 kts 193°
2026-04-26 19:13 48.09827 8.55969 18223 ft 364 kts 194°
2026-04-26 19:14 48.07340 8.55224 18221 ft 364 kts 194°
2026-04-26 19:14 48.04842 8.54482 18220 ft 365 kts 194°
2026-04-26 19:14 48.02351 8.53744 18220 ft 365 kts 193°
2026-04-26 19:14 48.01542 8.53505 18222 ft 365 kts 193°
2026-04-26 19:15 47.97369 8.52522 18001 ft 366 kts 182°
2026-04-26 19:15 47.94834 8.52902 17731 ft 367 kts 168°
2026-04-26 19:15 47.92431 8.54163 17469 ft 366 kts 154°
2026-04-26 19:15 47.90294 8.56212 17202 ft 365 kts 141°
2026-04-26 19:16 47.88336 8.58604 16866 ft 361 kts 141°
2026-04-26 19:16 47.86398 8.60968 16423 ft 360 kts 141°
2026-04-26 19:16 47.84449 8.63334 15947 ft 360 kts 142°
2026-04-26 19:16 47.82513 8.65681 15503 ft 359 kts 142°
2026-04-26 19:17 47.80576 8.68027 15043 ft 358 kts 142°
2026-04-26 19:17 47.78647 8.70364 14585 ft 357 kts 142°
2026-04-26 19:17 47.76743 8.72670 14136 ft 357 kts 142°
2026-04-26 19:17 47.74820 8.74998 13635 ft 356 kts 142°
2026-04-26 19:18 47.72905 8.77319 13161 ft 354 kts 142°
2026-04-26 19:18 47.71006 8.79618 12695 ft 351 kts 142°
2026-04-26 19:18 47.69111 8.81903 12228 ft 348 kts 142°
2026-04-26 19:18 47.67229 8.84162 11745 ft 346 kts 142°
2026-04-26 19:19 47.65360 8.86401 11286 ft 344 kts 142°
2026-04-26 19:19 47.63500 8.88637 10814 ft 342 kts 140°
2026-04-26 19:19 47.61889 8.91204 10430 ft 338 kts 125°
2026-04-26 19:19 47.60748 8.94165 10305 ft 325 kts 117°
2026-04-26 19:20 47.59621 8.96993 10179 ft 312 kts 131°
2026-04-26 19:20 47.59138 8.97740 10145 ft 307 kts 140°
2026-04-26 19:20 47.56001 8.99655 9626 ft 293 kts 180°
2026-04-26 19:20 47.54020 8.99149 9180 ft 286 kts 204°
2026-04-26 19:21 47.52352 8.97594 8468 ft 282 kts 221°
2026-04-26 19:21 47.50847 8.95732 7724 ft 282 kts 220°
2026-04-26 19:21 47.49845 8.94490 7234 ft 283 kts 220°
2026-04-26 19:21 47.48332 8.92619 6498 ft 283 kts 219°
2026-04-26 19:22 47.46367 8.90196 5943 ft 274 kts 219°
2026-04-26 19:22 47.45419 8.88938 5868 ft 265 kts 227°
2026-04-26 19:22 47.44391 8.86738 5664 ft 257 kts 245°
2026-04-26 19:22 47.43873 8.84285 5383 ft 252 kts 262°
2026-04-26 19:23 47.43867 8.81712 5045 ft 251 kts 276°
2026-04-26 19:23 47.44057 8.79152 4668 ft 248 kts 277°
2026-04-26 19:23 47.44241 8.76679 4309 ft 236 kts 277°
2026-04-26 19:23 47.44414 8.74312 3969 ft 227 kts 277°
2026-04-26 19:24 47.44580 8.72037 3671 ft 216 kts 277°
2026-04-26 19:24 47.44735 8.69892 3350 ft 203 kts 277°
2026-04-26 19:24 47.45012 8.66063 2788 ft 172 kts 277°
2026-04-26 19:25 47.45133 8.64369 2535 ft 160 kts 277°
2026-04-26 19:25 47.45200 8.63319 2401 ft 156 kts 276°
2026-04-26 19:25 47.45347 8.61293 2081 ft 149 kts 278°
2026-04-26 19:25 47.45467 8.59769 1866 ft 149 kts 276°
2026-04-26 19:26 47.45571 8.58262 1621 ft 147 kts 277°
2026-04-26 19:26 47.45681 8.56760 1425 ft 146 kts 277°
2026-04-26 19:26 47.45778 8.55379 1403 ft 115 kts 276°
2026-04-26 19:26 47.45829 8.54633 1400 ft 44 kts 270°
2026-04-26 19:27 47.45779 8.54340 1400 ft 22 kts 249°
2026-04-26 19:27 47.45694 8.54211 1397 ft 13 kts 184°
2026-04-26 19:27 47.45617 8.54265 1399 ft 13 kts 118°
2026-04-26 19:27 47.45590 8.54385 1398 ft 12 kts 113°
2026-04-26 19:28 47.45562 8.54506 1393 ft 13 kts 108°
2026-04-26 19:28 47.45536 8.54626 1398 ft 11 kts 107°
2026-04-26 19:28 47.45511 8.54735 1401 ft 13 kts 109°
2026-04-26 19:28 47.45485 8.54853 1402 ft 11 kts 108°
2026-04-26 19:29 47.45454 8.54982 1401 ft 14 kts 109°
2026-04-26 19:29 47.45423 8.55113 1404 ft 14 kts 108°
2026-04-26 19:29 47.45393 8.55244 1403 ft 14 kts 109°
2026-04-26 19:29 47.45345 8.55374 1399 ft 17 kts 121°
2026-04-26 19:30 47.45290 8.55521 1399 ft 13 kts 118°
2026-04-26 19:30 47.45270 8.55641 1397 ft 11 kts 95°
2026-04-26 19:30 47.45265 8.55721 1397 ft 6 kts 95°
2026-04-26 19:30 47.45279 8.55745 1401 ft 4 kts 17°
2026-04-26 19:31 47.45308 8.55748 1401 ft 2 kts
2026-04-26 19:31 47.45320 8.55750 1406 ft 1 kts
2026-04-26 19:31 47.45344 8.55753 1399 ft 3 kts
2026-04-26 19:31 47.45345 8.55754 1404 ft 0 kts